Regional Weather Roundup
Issued by NWS

Home | Current Version | Previous Version | Graphics & Text | Print | Product List | Glossary On
Versions: 1 2 3 4 5 6 7 8 9 10 11 12 13 14 15 16 17 18 19 20 21 22 23 24 25 26 27 28 29 30 31 32 33 34 35 36 37 38 39 40 41 42 43 44 45 46 47 48 49 50
000
ASUS43 KMPX 271001
RWRMN
WEATHER ROUNDUP FOR MINNESOTA
NATIONAL WEATHER SERVICE TWIN CITIES/CHANHASSEN MN
500 AM CDT WED JUL 27 2016


NOTE: "FAIR" INDICATES FEW OR NO CLOUDS BELOW 12,000 FEET WITH NO
SIGNIFICANT WEATHER AND/OR OBSTRUCTIONS TO VISIBILITY. N/A MEANS
CURRENT SKY AND/OR WEATHER CONDITIONS ARE NOT AVAILABLE.

MNZ060>063-068>070-271100-
   Twin Cities Metro

CITY           SKY/WX    TMP DP  RH WIND       PRES   REMARKS
TWIN CITIES    CLOUDY    77  68  73 SW7       29.96F
ST PAUL        CLOUDY    77  69  76 SW6       29.96F
CRYSTAL        CLOUDY    77  67  71 SW6       29.95S
BLAINE         CLOUDY    77  70  78 SW5       29.95F
LAKEVILLE      CLOUDY    72  70  94 CALM      29.98F
EDEN PRAIRIE   CLOUDY    75  70  84 CALM      29.95F
LAKEVILLE      CLOUDY    72  70  94 CALM      29.98F
SOUTH ST PAUL  CLOUDY    77  67  72 SW5       29.96F
LAKE ELMO      LGT RAIN  72  70  94 S6        29.97F
$$
MNZ001>005-007-008-013>017-022>024-027-028-271100-
   Northwest Minnesota

CITY           SKY/WX    TMP DP  RH WIND       PRES   REMARKS
HALLOCK        MOCLDY    59  55  88 N5        30.06R
ROSEAU         MOCLDY    57  52  82 CALM      30.05R
WARROAD        MOCLDY    57  54  88 NW5       30.05R
THIEF RVR FALL CLOUDY    62  57  83 N7        30.04R
CROOKSTON      CLOUDY    64  61  88 SE3       30.03R
FOSSTON        CLOUDY    63  55  77 N8        30.02R
DETROIT LAKES  CLOUDY    66  64  94 N7        29.99F
MOORHEAD       LGT RAIN  66  64  94 NW3       30.00S
PARK RAPIDS    CLOUDY    69  63  81 N10       29.96F
MAHNOMEN       PTSUNNY   63  61  93 N8        29.99F
$$
MNZ006-009>011-018-025>026-271100-
   North Central Minnesota

CITY           SKY/WX    TMP DP  RH WIND       PRES   REMARKS
BAUDETTE       CLOUDY    64  55  72 N6        30.02R
FLAG ISLAND    PTCLDY    64  55  72 NE8       30.04R
INTL FALLS     CLOUDY    66  56  70 NE5       30.01R
WASKISH        LGT RAIN  63  57  82 N3        30.01R
BIG FORK       CLOUDY    63  61  94 CALM      29.99S
LONGVILLE      CLOUDY    64  64 100 CALM      29.97S
GRAND RAPIDS   CLOUDY    64  62  93 CALM      29.99S
CRANE LAKE     CLOUDY    55  54  94 CALM      30.02S
ORR            CLOUDY    63  55  77 CALM      29.98S
COOK           CLOUDY    63  59  88 CALM      30.00S
WALKER         DRIZZLE   66  61  85 N3        29.98F
$$
MNZ012-019>021-037-271100-
   Northeast Minnesota

CITY           SKY/WX    TMP DP  RH WIND       PRES   REMARKS
DULUTH         CLOUDY    68  67  96 CALM      29.98R
ELY            CLOUDY    64  57  77 CALM      30.01S
HIBBING        CLOUDY    66  57  72 NE6       29.98S
EVELETH        CLOUDY    65  55  69 NE5       30.00S
DULUTH HARBOR  CLOUDY    66  64  94 CALM      29.96S
TWO HARBORS    CLOUDY    70  61  73 N5        29.96S
SILVER BAY     CLOUDY    66  57  72 N3        29.97S
GRAND MARAIS     N/A     71  50  47 N7        29.96R
G MARAIS ARPRT CLOUDY    61  48  63 N7        30.03S
$$
MNZ029>031-032-039>041-046>048-054>057-064-271100-
   West Central Minnesota

CITY           SKY/WX    TMP DP  RH WIND       PRES   REMARKS
FERGUS FALLS   CLOUDY    64  64 100 NW10      29.98F
WHEATON        TSTM      66  66 100 NE9       29.95F
MORRIS         TSTM      64  63  94 CALM      29.96R
ALEXANDRIA     CLOUDY    69  67  93 W8        29.98F
ELBOW LAKE     TSTM      65  65  98 N10       29.97F
WADENA         CLOUDY    66  64  94 CALM      29.95F
GLENWOOD       CLOUDY    68  66  94 CALM      29.96F
APPLETON       TSTM      66  63  88 N8        29.95R
BENSON         CLOUDY    68  64  88 NW22G31   29.99R THUNDER
ORTONVILLE     CLOUDY    64  63  94 N3        29.96R
MADISON        CLOUDY    70  64  83 NE7       29.93F
WILLMAR        FAIR      72  68  88 CALM      29.95F
$$
MNZ033>034-036-042>043-049>051-058-059-271100-
   Central Minnesota

CITY           SKY/WX    TMP DP  RH WIND       PRES   REMARKS
ST CLOUD       LGT RAIN  67  67 100 CALM      29.94F
SAUK CENTRE    FAIR      68  65  89 CALM      29.95F
PAYNESVILLE    MOCLDY    68  69 100 CALM      29.95F
AITKIN         CLOUDY    63  57  82 CALM      29.95F
PINE RIVER     CLOUDY    64  64 100 CALM      30.00S
BRAINERD       CLOUDY    64  62  93 CALM      29.96F
STAPLES        CLOUDY    64  63  94 CALM      29.95F
LONG PRAIRIE   FAIR      68  66  94 CALM      29.96F
LITTLE FALLS   CLOUDY    64  63  94 CALM      29.96S
LITCHFIELD     CLOUDY    73  73 100 CALM      29.95F
BUFFALO        CLOUDY    73  69  85 CALM      29.96F
MAPLE LAKE     CLOUDY    72  70  92 CALM      29.97F
HUTCHINSON     CLOUDY    73  71  93 CALM      29.96F
$$
MNZ037-044-045-052-053-271100-
   East Central Minnesota

CITY           SKY/WX    TMP DP  RH WIND       PRES   REMARKS
PRINCETON      CLOUDY    68  64  88 CALM      29.96F
MORA           CLOUDY    64  63  94 CALM      29.97F
CAMBRIDGE      CLOUDY    70  61  73 CALM      29.95S
RUSH CITY      CLOUDY    67  64  91 CALM      29.96F
MOOSE LAKE     CLOUDY    61  59  94 CALM      29.96S FOG
HINCKLEY       CLOUDY    66  64  94 S3        29.97S
CLOQUET        MOCLDY    66  61  82 CALM      29.97S
MCGREGOR       MOCLDY    63  61  94 CALM      29.97S
$$
MNZ071>073-080-081-089-090-097-098-271100-
   Southwest Minnesota

CITY           SKY/WX    TMP DP  RH WIND       PRES   REMARKS
MONTEVIDEO     CLOUDY    70  70 100 SW3       29.96R
GRANITE FALLS  CLOUDY    73  69  88 SE8       29.94F
CANBY          CLOUDY    69  65  89 N5        29.95F
MARSHALL       CLOUDY    71  67  87 SE8       29.93F
REDWOOD FALLS  CLOUDY    71  67  87 SE7       29.94F
OLIVIA         MOCLDY    70  66  88 S7        29.94F
PIPESTONE      CLOUDY    70  64  83 S6        29.95S
WINDOM         MOCLDY    72  64  78 S6        29.97F
WORTHINGTON    CLOUDY    70  66  87 S8        29.98F
JACKSON        CLOUDY    70  63  78 S5        29.98F
TRACY          PTCLDY    71  68  88 S7        29.94F
SLAYTON        PTCLDY    70  65  85 S10       29.95F
$$
MNZ065>067-074>077-082>085-091>093-271100-
   South Central Minnesota

CITY           SKY/WX    TMP DP  RH WIND       PRES   REMARKS
MANKATO        PTCLDY    70  64  83 S6        29.98F
NEW ULM        CLOUDY    70  70 100 SE3       29.96F
ST JAMES       CLOUDY    64  63  94 CALM      29.97F
FAIRMONT       CLOUDY    68  63  83 S5        29.97F
GLENCOE        CLOUDY    73  71  95 CALM      29.95F
FARIBAULT      MOCLDY    70  66  88 CALM      29.99F
OWATONNA       CLOUDY    66  64  94 CALM      30.01S
WASECA         CLEAR     64  63  94 CALM      30.01F
ALBERT LEA     CLEAR     70  64  83 CALM      30.00F
$$
MNZ078>079-086>088-094>096-271100-
   Southeast Minnesota

CITY           SKY/WX    TMP DP  RH WIND       PRES   REMARKS
ROCHESTER      CLOUDY    65  64  97 S3        30.03S
RED WING       CLOUDY    70  66  88 CALM      29.97S
DODGE CENTER   CLOUDY    66  64  94 CALM      30.02R
WINONA         CLEAR     68  68 100 CALM      30.00S
AUSTIN         PTCLDY    64  63  94 CALM      30.01S
PRESTON        CLEAR     66  64  90 CALM      30.04R
$$
ABBREVIATIONS USED IN REMARKS
   TC - TEMPERATURES IN CELSIUS
  WCI - WIND CHILL INDEX
   HX - HEAT INDEX
  VSB - VISIBILITY
$$




USA.gov is the U.S. government's official web portal to all federal, state and local government web resources and services.